EW1476 Weather Reports


Display with metric or nautical units.
time (UTC)temp
F
wind
direction
speed
MPH
gust
MPH
rain 1hr
in
rain 24hr
in
rain mn
in
humidity
%
barometer
mb
20260504191503 72 226 1.0 3.0 0.00 0.00 0.00 37 1011.3
20260504190014 71 245 1.0 4.0 0.00 0.00 0.00 37 1011.5
20260504184512 70 300 2.0 4.0 0.00 0.00 0.00 38 1011.8
20260504183008 70 135 1.0 4.0 0.00 0.00 0.00 37 1011.9
20260504181503 70 238 1.0 2.0 0.00 0.00 0.00 37 1012.3
20260504180009 70 187 1.0 3.0 0.00 0.00 0.00 37 1012.5
20260504174520 69 155 0.0 4.0 0.00 0.00 0.00 39 1012.7
20260504173020 69 238 0.0 3.0 0.00 0.00 0.00 37 1012.8
20260504171512 68 165 1.0 4.0 0.00 0.00 0.00 38 1012.9
20260504081512 45 212 0.0 0.0 0.00 0.00 0.00 73 1015.5
20260504050024 40 272 0.0 0.0 0.00 0.00 0.00 79 1016.0
20260504044522 41 272 0.0 0.0 0.00 0.00 0.00 77 1015.9
20260504043022 41 272 0.0 0.0 0.00 0.00 0.00 77 1015.9
20260504041520 42 272 0.0 0.0 0.00 0.00 0.00 77 1015.9
20260504040018 41 272 0.0 0.0 0.00 0.00 0.00 79 1015.8
20260504034514 41 272 0.0 0.0 0.00 0.00 0.00 78 1015.7
20260504033029 41 272 0.0 0.0 0.00 0.00 0.00 77 1015.6
20260504031526 41 272 0.0 0.0 0.00 0.00 0.00 76 1015.3
20260504030035 42 272 0.0 0.0 0.00 0.00 0.00 73 1015.2
20260504024522 43 272 0.0 0.0 0.00 0.00 0.00 74 1015.3
20260504023020 44 272 0.0 0.0 0.00 0.00 0.00 71 1015.3
20260504021515 44 272 0.0 0.0 0.00 0.00 0.00 70 1015.3
20260504020029 45 272 0.0 0.0 0.00 0.00 0.00 68 1015.2
20260504014525 46 272 0.0 0.0 0.00 0.00 0.00 68 1015.3
20260504013026 48 272 0.0 0.0 0.00 0.00 0.00 61 1015.3
20260504011523 49 272 0.0 0.0 0.00 0.00 0.00 62 1015.2
20260504010020 50 272 0.0 0.0 0.00 0.00 0.00 51 1015.1
20260504004529 52 272 0.0 0.0 0.00 0.00 0.00 47 1015.0
20260504003028 54 272 0.0 0.0 0.00 0.00 0.00 42 1014.7
20260504001527 55 272 0.0 0.0 0.00 0.00 0.00 39 1014.6
20260504000026 56 271 0.0 0.0 0.00 0.00 0.00 37 1014.5
20260503234526 57 272 0.0 0.0 0.00 0.00 0.00 34 1014.4
20260503233022 58 272 0.0 2.0 0.00 0.00 0.00 33 1014.3
20260503231520 58 260 1.0 2.0 0.00 0.00 0.00 32 1014.1
20260503230014 59 272 0.0 2.0 0.00 0.00 0.00 31 1014.0
20260503224508 59 271 2.0 6.0 0.00 0.00 0.00 32 1014.1
20260503223010 59 306 1.0 4.0 0.00 0.00 0.00 32 1014.2
20260503221525 59 317 0.0 3.0 0.00 0.00 0.00 33 1014.1
20260503220034 59 315 2.0 6.0 0.00 0.00 0.00 31 1014.2
20260503214518 59 330 2.0 4.0 0.00 0.00 0.00 30 1014.2
20260503213016 59 309 2.0 7.0 0.00 0.00 0.00 30 1014.2
20260503211518 59 307 2.0 7.0 0.00 0.00 0.00 31 1014.2
20260503210016 59 245 2.0 4.0 0.00 0.00 0.00 30 1014.3
20260503204539 58 303 3.0 5.0 0.00 0.00 0.00 30 1014.3
20260503203011 58 317 3.0 7.0 0.00 0.00 0.00 31 1014.2
20260503201525 57 301 2.0 7.0 0.00 0.00 0.00 32 1014.5
20260503200018 57 307 1.0 6.0 0.00 0.00 0.00 32 1014.6
20260503194521 57 324 3.0 7.0 0.00 0.00 0.00 32 1014.9
20260503193012 57 281 1.0 4.0 0.00 0.00 0.00 37 1015.1